NI4CE-14 Weather Reports


Display with metric or nautical units.
time (UTC)temp
F
wind
direction
speed
MPH
gust
MPH
rain 1hr
in
rain 24hr
in
rain mn
in
humidity
%
barometer
mb
20260510093305 83 229 0.0 0.0 0.00 0.00 0.00 100 1011.8
20260510092805 83 229 0.0 0.0 0.00 0.00 0.00 100 1011.6
20260510092306 83 229 0.0 0.0 0.00 0.00 0.00 100 1011.4
20260510091805 83 229 0.0 0.0 0.00 0.00 0.00 100 1011.4
20260510091305 83 229 0.0 0.0 0.00 0.00 0.00 100 1011.5
20260510090805 83 229 0.0 0.0 0.00 0.00 0.00 100 1011.3
20260510090305 83 229 0.0 0.0 0.00 0.00 0.00 100 1011.3
20260510085805 83 229 0.0 3.0 0.00 0.00 0.00 100 1011.2
20260510085306 83 196 2.0 3.0 0.00 0.00 0.00 100 1011.0
20260510084805 83 165 0.0 3.0 0.00 0.00 0.00 100 1011.1
20260510084305 83 171 0.0 2.0 0.00 0.00 0.00 100 1011.1
20260510084050 83 164 1.0 5.0 0.00 0.00 0.00 100 1010.9
20260510083805 83 164 1.0 5.0 0.00 0.00 0.00 100 1010.9
20260510083305 83 208 3.0 4.0 0.00 0.00 0.00 100 1010.9
20260510082805 83 170 1.0 3.0 0.00 0.00 0.00 100 1010.8
20260510082306 83 177 0.0 2.0 0.00 0.00 0.00 100 1010.9
20260510081805 83 206 0.0 2.0 0.00 0.00 0.00 100 1010.9
20260510081305 84 191 0.0 2.0 0.00 0.00 0.00 100 1011.0
20260510080805 84 175 0.0 1.0 0.00 0.00 0.00 100 1011.0
20260510080305 84 161 0.0 2.0 0.00 0.00 0.00 100 1011.0
20260510075948 84 201 0.0 5.0 0.00 0.00 0.00 100 1011.0
20260510075805 84 201 0.0 5.0 0.00 0.00 0.00 100 1011.0
20260510075306 84 147 0.0 4.0 0.00 0.00 0.00 100 1011.2
20260510074805 84 194 0.0 5.0 0.00 0.00 0.00 100 1011.2
20260510074305 84 199 0.0 0.0 0.00 0.00 0.00 100 1011.1
20260510073805 84 199 0.0 0.0 0.00 0.00 0.00 100 1011.0
20260510073305 84 199 0.0 0.0 0.00 0.00 0.00 100 1011.1
20260510072805 84 199 0.0 0.0 0.00 0.00 0.00 100 1011.2
20260510072306 84 199 0.0 0.0 0.00 0.00 0.00 100 1011.2
20260510071805 85 199 0.0 0.0 0.00 0.00 0.00 100 1011.3
20260510071305 85 199 0.0 0.0 0.00 0.00 0.00 100 1011.4
20260510070805 85 199 0.0 0.0 0.00 0.00 0.00 100 1011.4
20260510070305 85 199 0.0 0.0 0.00 0.00 0.00 100 1011.4
20260510065805 85 199 0.0 0.0 0.00 0.00 0.00 100 1011.4
20260510065306 85 199 0.0 2.0 0.00 0.00 0.00 100 1011.5
20260510065025 85 150 0.0 2.0 0.00 0.00 0.00 100 1011.5
20260510064805 85 150 0.0 2.0 0.00 0.00 0.00 100 1011.5
20260510064305 85 184 0.0 2.0 0.00 0.00 0.00 100 1011.7
20260510063805 85 180 0.0 0.0 0.00 0.00 0.00 100 1011.8
20260510063305 85 180 0.0 1.0 0.00 0.00 0.00 100 1011.9
20260510062805 85 142 0.0 2.0 0.00 0.00 0.00 100 1011.9
20260510062307 85 175 1.0 2.0 0.00 0.00 0.00 100 1011.9
20260510061805 85 8 0.0 0.0 0.00 0.00 0.00 100 1012.0
20260510061305 85 8 0.0 0.0 0.00 0.00 0.00 100 1012.0
20260510060805 85 8 0.0 0.0 0.00 0.00 0.00 100 1012.0
20260510060305 85 8 0.0 0.0 0.00 0.00 0.00 100 1012.0
20260510055805 85 8 0.0 0.0 0.00 0.00 0.00 100 1012.2
20260510055307 85 8 0.0 0.0 0.00 0.00 0.00 100 1012.3
20260510054805 85 8 0.0 0.0 0.00 0.00 0.00 100 1012.3
20260510054305 85 8 0.0 0.0 0.00 0.00 0.00 100 1012.4
20260510053805 85 8 0.0 0.0 0.00 0.00 0.00 100 1012.5
20260510053305 85 8 0.0 0.0 0.00 0.00 0.00 100 1012.6
20260510052805 85 8 0.0 0.0 0.00 0.00 0.00 100 1012.5
20260510052306 85 8 0.0 0.0 0.00 0.00 0.00 100 1012.6
20260510051805 85 8 0.0 0.0 0.00 0.00 0.00 100 1012.6
20260510051305 84 8 0.0 0.0 0.00 0.00 0.00 100 1012.7
20260510050805 84 8 0.0 0.0 0.00 0.00 0.00 100 1012.6
20260510050305 84 8 0.0 0.0 0.00 0.00 0.00 100 1012.6
20260510045805 84 8 0.0 0.0 0.00 0.00 0.00 100 1012.6
20260510045306 84 8 0.0 0.0 0.00 0.00 0.00 100 1012.7
20260510044805 84 8 0.0 0.0 0.00 0.00 0.00 100 1012.8
20260510044305 84 8 0.0 0.0 0.00 0.00 0.00 100 1012.8
20260510043805 84 8 0.0 0.0 0.00 0.00 0.00 100 1012.8
20260510043305 84 8 0.0 0.0 0.00 0.00 0.00 100 1012.9
20260510042805 84 8 0.0 0.0 0.00 0.00 0.00 100 1012.9
20260510042307 84 8 0.0 0.0 0.00 0.00 0.00 100 1012.9
20260510041805 84 8 0.0 0.0 0.00 0.00 0.00 100 1012.9
20260510041305 84 8 0.0 0.0 0.00 0.00 0.00 100 1012.9
20260510040805 84 8 0.0 0.0 0.00 0.00 0.00 100 1012.8
20260510040305 84 8 0.0 0.0 0.00 0.00 0.00 100 1012.8
20260510035805 84 8 0.0 0.0 0.00 0.00 0.00 100 1012.8
20260510035306 84 8 0.0 0.0 0.00 0.00 0.00 100 1012.8
20260510034805 84 8 0.0 0.0 0.00 0.00 0.00 100 1012.8
20260510034305 84 8 0.0 0.0 0.00 0.00 0.00 100 1012.8
20260510033805 84 8 0.0 0.0 0.00 0.00 0.00 100 1012.8
20260510033305 84 8 0.0 0.0 0.00 0.00 0.00 100 1012.6
20260510032805 84 8 0.0 0.0 0.00 0.00 0.00 100 1012.7
20260510032306 84 8 0.0 0.0 0.00 0.00 0.00 100 1012.6
20260510031805 85 8 0.0 0.0 0.00 0.00 0.00 100 1012.6
20260510031305 85 8 0.0 0.0 0.00 0.00 0.00 100 1012.5
20260510030805 85 8 0.0 0.0 0.00 0.00 0.00 100 1012.5
20260510030305 85 8 0.0 0.0 0.00 0.00 0.00 100 1012.5
20260510025805 85 8 0.0 0.0 0.00 0.00 0.00 100 1012.5
20260510025306 85 8 0.0 0.0 0.00 0.00 0.00 100 1012.3
20260510024805 85 8 0.0 0.0 0.00 0.00 0.00 100 1012.2
20260510024305 85 8 0.0 0.0 0.00 0.00 0.00 100 1012.3
20260510023805 85 8 0.0 0.0 0.00 0.00 0.00 100 1012.3
20260510023305 85 8 0.0 0.0 0.00 0.00 0.00 100 1012.4
20260510022806 85 8 0.0 0.0 0.00 0.00 0.00 100 1011.0
20260510022306 85 8 0.0 0.0 0.00 0.00 0.00 100 1012.3
20260510021805 85 8 0.0 0.0 0.00 0.00 0.00 100 1012.3
20260510021305 85 8 0.0 0.0 0.00 0.00 0.00 100 1012.3
20260510020805 85 8 0.0 0.0 0.00 0.00 0.00 100 1012.3
20260510020305 85 8 0.0 0.0 0.00 0.00 0.00 100 1012.3
20260510015805 85 8 0.0 0.0 0.00 0.00 0.00 100 1012.3
20260510015306 85 8 0.0 0.0 0.00 0.00 0.00 100 1012.3
20260510014805 85 8 0.0 0.0 0.00 0.00 0.00 100 1011.7
20260510014305 85 8 0.0 0.0 0.00 0.00 0.00 100 1012.2
20260510013805 85 8 0.0 0.0 0.00 0.00 0.00 100 1012.1
20260510013305 85 8 0.0 0.0 0.00 0.00 0.00 100 1012.2
20260510012805 85 8 0.0 0.0 0.00 0.00 0.00 100 1012.2
20260510012307 85 8 0.0 0.0 0.00 0.00 0.00 100 1012.1
20260510011805 85 8 0.0 0.0 0.00 0.00 0.00 100 1012.0
20260510011305 85 8 0.0 0.0 0.00 0.00 0.00 100 1011.8
20260510010805 85 8 0.0 0.0 0.00 0.00 0.00 100 1011.8
20260510010305 85 8 0.0 0.0 0.00 0.00 0.00 100 1011.7
20260510005805 85 8 0.0 0.0 0.00 0.00 0.00 100 1010.2
20260510005306 85 8 0.0 0.0 0.00 0.00 0.00 100 1011.2
20260510004805 85 8 0.0 0.0 0.00 0.00 0.00 100 1010.2
20260510004305 85 8 0.0 0.0 0.00 0.00 0.00 100 1010.2
20260510003805 85 8 0.0 0.0 0.00 0.00 0.00 100 1009.9
20260510003305 85 8 0.0 0.0 0.00 0.00 0.00 100 1010.6
20260510002805 85 8 0.0 0.0 0.00 0.00 0.00 100 1010.1
20260510002307 85 8 0.0 2.0 0.00 0.00 0.00 100 1011.5
20260510001805 85 347 0.0 1.0 0.00 0.00 0.00 100 1011.4
20260510001305 85 28 0.0 2.0 0.00 0.00 0.00 100 1011.3
20260510000805 85 233 0.0 0.0 0.00 0.00 0.00 100 1011.3
20260510000305 85 233 0.0 0.0 0.00 0.00 0.00 100 1011.1
20260509235805 85 233 0.0 0.0 0.00 0.00 0.00 100 1011.0
20260509235307 85 233 0.0 0.0 0.00 0.00 0.00 100 1011.0
20260509234805 85 233 0.0 0.0 0.00 0.00 0.00 100 1010.9
20260509234305 85 233 0.0 0.0 0.00 0.00 0.00 100 1010.7
20260509233805 86 233 0.0 2.0 0.00 0.00 0.00 100 1010.8
20260509233305 86 289 0.0 0.0 0.00 0.00 0.00 100 1010.8
20260509232805 86 289 0.0 6.0 0.00 0.00 0.00 100 1010.8
20260509232306 87 288 3.0 8.0 0.00 0.00 0.00 100 1010.8
20260509231805 87 244 0.0 5.0 0.00 0.00 0.00 100 1010.7
20260509231305 87 275 3.0 5.0 0.00 0.00 0.00 100 1010.7
20260509230805 87 292 3.0 6.0 0.00 0.00 0.00 100 1010.7
20260509230305 87 174 0.0 6.0 0.00 0.00 0.00 100 1010.7
20260509225805 88 15 0.0 5.0 0.00 0.00 0.00 100 1010.6
20260509225306 87 262 2.0 9.0 0.00 0.00 0.00 100 1010.5
20260509225133 87 220 6.0 7.0 0.00 0.00 0.00 100 1010.5
20260509224805 87 220 6.0 7.0 0.00 0.00 0.00 100 1010.5
20260509224306 87 209 1.0 4.0 0.00 0.00 0.00 100 1010.6
20260509223806 87 229 0.0 4.0 0.00 0.00 0.00 100 1010.6
20260509223306 87 88 0.0 3.0 0.00 0.00 0.00 100 1010.5
20260509222806 87 241 0.0 6.0 0.00 0.00 0.00 100 1010.6
20260509222307 88 354 3.0 6.0 0.00 0.00 0.00 100 1010.5
20260509221806 88 115 0.0 6.0 0.00 0.00 0.00 100 1010.3
20260509221306 88 278 0.0 7.0 0.00 0.00 0.00 100 1010.3
20260509220806 88 303 5.0 5.0 0.00 0.00 0.00 100 1010.3
20260509220306 88 279 1.0 8.0 0.00 0.00 0.00 100 1010.3
20260509215806 88 196 1.0 6.0 0.00 0.00 0.00 100 1010.2
20260509215306 88 254 0.0 8.0 0.00 0.00 0.00 100 1010.3
20260509214806 89 232 3.0 6.0 0.00 0.00 0.00 100 1010.2
20260509214306 89 300 0.0 6.0 0.00 0.00 0.00 100 1010.1
20260509213806 89 172 1.0 7.0 0.00 0.00 0.00 100 1010.0
20260509213306 89 182 0.0 4.0 0.00 0.00 0.00 100 1010.1
20260509213022 89 295 1.0 7.0 0.00 0.00 0.00 100 1009.9
20260509212806 89 295 1.0 7.0 0.00 0.00 0.00 100 1009.9
20260509212306 89 151 0.0 8.0 0.00 0.00 0.00 100 1010.0
20260509211806 89 236 2.0 5.0 0.00 0.00 0.00 100 1009.9
20260509211306 89 234 0.0 11.0 0.00 0.00 0.00 100 1009.6
20260509210806 89 272 0.0 9.0 0.00 0.00 0.00 100 1009.9
20260509210306 89 254 2.0 9.0 0.00 0.00 0.00 100 1009.8
20260509205806 89 160 1.0 11.0 0.00 0.00 0.00 100 1009.9
20260509205307 89 278 1.0 10.0 0.00 0.00 0.00 100 1009.9
20260509204806 89 240 6.0 10.0 0.00 0.00 0.00 100 1009.8
20260509204306 89 284 4.0 12.0 0.00 0.00 0.00 100 1009.9
20260509203806 90 209 5.0 9.0 0.00 0.00 0.00 100 1009.8
20260509203306 90 278 4.0 13.0 0.00 0.00 0.00 100 1009.9
20260509202806 90 251 8.0 11.0 0.00 0.00 0.00 100 1009.9
20260509202307 90 262 0.0 14.0 0.00 0.00 0.00 100 1009.8
20260509201806 90 250 1.0 11.0 0.00 0.00 0.00 100 1009.8
20260509201306 90 261 3.0 15.0 0.00 0.00 0.00 100 1009.8
20260509200806 90 279 8.0 15.0 0.00 0.00 0.00 100 1009.8
20260509200306 91 316 2.0 8.0 0.00 0.00 0.00 100 1009.9
20260509195806 91 260 2.0 9.0 0.00 0.00 0.00 100 1010.0
20260509195307 91 270 2.0 7.0 0.00 0.00 0.00 100 1010.1
20260509194806 91 208 2.0 15.0 0.00 0.00 0.00 100 1010.1
20260509194306 91 243 1.0 11.0 0.00 0.00 0.00 100 1010.1
20260509193806 90 188 5.0 11.0 0.00 0.00 0.00 100 1010.2
20260509193306 90 146 1.0 11.0 0.00 0.00 0.00 100 1010.2
20260509192806 91 237 9.0 11.0 0.00 0.00 0.00 100 1010.1
20260509192306 91 291 3.0 12.0 0.00 0.00 0.00 100 1010.1
20260509191806 92 196 2.0 10.0 0.00 0.00 0.00 100 1010.3
20260509191306 92 198 1.0 7.0 0.00 0.00 0.00 100 1010.4
20260509190806 92 21 1.0 6.0 0.00 0.00 0.00 100 1010.6
20260509190306 91 305 3.0 14.0 0.00 0.00 0.00 100 1010.7
20260509185806 92 220 3.0 7.0 0.00 0.00 0.00 100 1010.7
20260509185306 92 206 0.0 6.0 0.00 0.00 0.00 100 1010.9
20260509184806 92 260 1.0 7.0 0.00 0.00 0.00 100 1010.9
20260509184306 92 277 2.0 10.0 0.00 0.00 0.00 100 1010.9
20260509183806 92 195 1.0 8.0 0.00 0.00 0.00 100 1011.1
20260509183306 91 241 1.0 9.0 0.00 0.00 0.00 100 1011.2
20260509182806 92 274 3.0 8.0 0.00 0.00 0.00 100 1011.3
20260509182307 92 247 2.0 9.0 0.00 0.00 0.00 100 1011.1
20260509181940 93 232 3.0 7.0 0.00 0.00 0.00 100 1011.3
20260509181806 93 232 3.0 7.0 0.00 0.00 0.00 100 1011.3
20260509181306 93 202 3.0 9.0 0.00 0.00 0.00 100 1011.3
20260509180806 93 305 4.0 6.0 0.00 0.00 0.00 100 1011.4
20260509180306 93 315 2.0 6.0 0.00 0.00 0.00 100 1011.3
20260509175806 93 241 2.0 11.0 0.00 0.00 0.00 100 1011.4
20260509175307 93 257 2.0 6.0 0.00 0.00 0.00 100 1011.3
20260509174806 93 260 3.0 5.0 0.00 0.00 0.00 100 1011.3
20260509174544 93 220 0.0 9.0 0.00 0.00 0.00 100 1011.2
20260509174306 93 220 0.0 9.0 0.00 0.00 0.00 100 1011.2
20260509173806 93 199 8.0 8.0 0.00 0.00 0.00 100 1011.3
20260509173306 92 187 0.0 11.0 0.00 0.00 0.00 100 1011.3
20260509172806 93 212 1.0 7.0 0.00 0.00 0.00 100 1011.3
20260509172307 93 230 0.0 7.0 0.00 0.00 0.00 100 1011.3
20260509171806 94 66 0.0 6.0 0.00 0.00 0.00 100 1011.3
20260509171306 94 285 6.0 6.0 0.00 0.00 0.00 100 1011.3
20260509170806 94 247 4.0 8.0 0.00 0.00 0.00 100 1011.3
20260509170306 94 239 4.0 8.0 0.00 0.00 0.00 100 1011.3
20260509165806 94 73 0.0 5.0 0.00 0.00 0.00 100 1011.2
20260509165307 93 217 3.0 6.0 0.00 0.00 0.00 100 1011.3
20260509164806 93 272 2.0 9.0 0.00 0.00 0.00 100 1011.3
20260509164306 93 196 1.0 5.0 0.00 0.00 0.00 100 1011.4
20260509163806 93 281 5.0 7.0 0.00 0.00 0.00 100 1011.4
20260509163306 93 261 2.0 5.0 0.00 0.00 0.00 100 1011.4
20260509162806 93 323 3.0 4.0 0.00 0.00 0.00 100 1011.2
20260509162307 93 170 4.0 9.0 0.00 0.00 0.00 100 1011.2
20260509161806 93 268 9.0 9.0 0.00 0.00 0.00 100 1011.1
20260509161306 93 264 5.0 6.0 0.00 0.00 0.00 100 1011.1
20260509160950 93 312 2.0 7.0 0.00 0.00 0.00 100 1011.0
20260509160806 93 312 2.0 7.0 0.00 0.00 0.00 100 1011.0
20260509160306 93 230 2.0 6.0 0.00 0.00 0.00 100 1011.1
20260509155806 92 237 2.0 6.0 0.00 0.00 0.00 100 1011.0
20260509155306 92 282 3.0 6.0 0.00 0.00 0.00 100 1011.1
20260509154806 92 239 2.0 8.0 0.00 0.00 0.00 100 1011.2
20260509154306 92 225 2.0 7.0 0.00 0.00 0.00 100 1011.2
20260509153806 92 244 1.0 5.0 0.00 0.00 0.00 100 1011.2
20260509153306 92 232 5.0 8.0 0.00 0.00 0.00 100 1011.3
20260509152806 92 319 0.0 6.0 0.00 0.00 0.00 100 1011.2
20260509152307 91 251 4.0 7.0 0.00 0.00 0.00 100 1011.2
20260509151806 91 246 0.0 6.0 0.00 0.00 0.00 100 1011.4
20260509151306 91 288 3.0 5.0 0.00 0.00 0.00 100 1011.5
20260509150806 90 215 2.0 6.0 0.00 0.00 0.00 100 1011.6
20260509150431 90 210 1.0 6.0 0.00 0.00 0.00 100 1011.6
20260509150306 90 210 1.0 6.0 0.00 0.00 0.00 100 1011.6
20260509145806 90 175 1.0 9.0 0.00 0.00 0.00 100 1011.6
20260509145306 90 194 4.0 9.0 0.00 0.00 0.00 100 1011.7
20260509145152 90 215 4.0 6.0 0.00 0.00 0.00 100 1011.7
20260509144806 90 215 4.0 6.0 0.00 0.00 0.00 100 1011.7
20260509144306 90 198 0.0 4.0 0.00 0.00 0.00 100 1011.8
20260509143806 89 289 3.0 6.0 0.00 0.00 0.00 100 1011.8
20260509143306 89 192 0.0 7.0 0.00 0.00 0.00 100 1011.9
20260509142806 89 205 1.0 7.0 0.00 0.00 0.00 100 1011.8
20260509142307 88 182 4.0 7.0 0.00 0.00 0.00 100 1011.8
20260509141806 88 258 3.0 7.0 0.00 0.00 0.00 100 1011.7
20260509141306 88 222 2.0 7.0 0.00 0.00 0.00 100 1011.7
20260509140806 88 257 3.0 7.0 0.00 0.00 0.00 100 1011.7
20260509140306 87 168 2.0 8.0 0.00 0.00 0.00 100 1011.7
20260509135806 87 202 5.0 7.0 0.00 0.00 0.00 100 1011.7
20260509135306 87 216 2.0 8.0 0.00 0.00 0.00 100 1011.8
20260509135055 86 208 3.0 5.0 0.00 0.00 0.00 100 1011.8
20260509134806 87 165 3.0 6.0 0.00 0.00 0.00 100 1011.8
20260509134306 87 223 5.0 6.0 0.00 0.00 0.00 100 1011.8
20260509134042 86 208 3.0 5.0 0.00 0.00 0.00 100 1011.8
20260509133806 86 208 3.0 5.0 0.00 0.00 0.00 100 1011.8
20260509133306 86 272 0.0 8.0 0.00 0.00 0.00 100 1011.8
20260509132806 86 209 5.0 5.0 0.00 0.00 0.00 100 1011.9
20260509132307 85 253 0.0 6.0 0.00 0.00 0.00 100 1012.0
20260509131806 85 210 0.0 6.0 0.00 0.00 0.00 100 1012.1
20260509131306 85 210 0.0 4.0 0.00 0.00 0.00 100 1012.1
20260509130806 84 151 0.0 4.0 0.00 0.00 0.00 100 1012.0
20260509130306 84 264 0.0 5.0 0.00 0.00 0.00 100 1012.0
20260509125806 84 185 2.0 5.0 0.00 0.00 0.00 100 1012.0
20260509125308 83 236 2.0 4.0 0.00 0.00 0.00 100 1011.9
20260509124806 83 208 1.0 4.0 0.00 0.00 0.00 100 1011.9
20260509124306 83 206 1.0 4.0 0.00 0.00 0.00 100 1011.9
20260509123806 83 172 0.0 4.0 0.00 0.00 0.00 100 1011.9
20260509123306 82 170 0.0 3.0 0.00 0.00 0.00 100 1012.0
20260509122806 82 160 1.0 3.0 0.00 0.00 0.00 100 1012.0
20260509122306 82 255 2.0 4.0 0.00 0.00 0.00 100 1012.0
20260509121806 82 151 3.0 4.0 0.00 0.00 0.00 100 1011.9
20260509121306 82 184 0.0 3.0 0.00 0.00 0.00 100 1011.9
20260509120806 82 184 0.0 3.0 0.00 0.00 0.00 100 1012.0
20260509120306 82 170 0.0 1.0 0.00 0.00 0.00 100 1011.9
20260509115806 81 192 0.0 0.0 0.00 0.00 0.00 100 1011.9
20260509115308 81 192 0.0 0.0 0.00 0.00 0.00 100 1011.9
20260509114806 81 192 0.0 0.0 0.00 0.00 0.00 100 1011.9
20260509114306 81 192 0.0 0.0 0.00 0.00 0.00 100 1011.9
20260509113807 81 192 0.0 0.0 0.00 0.00 0.00 100 1011.8
20260509113306 81 192 0.0 0.0 0.00 0.00 0.00 100 1011.8
20260509112806 81 192 0.0 0.0 0.00 0.00 0.00 100 1011.7
20260509112307 81 192 0.0 0.0 0.00 0.00 0.00 100 1011.6
20260509111806 81 192 0.0 0.0 0.00 0.00 0.00 100 1011.5
20260509111307 80 192 0.0 0.0 0.00 0.00 0.00 100 1011.4
20260509110807 80 192 0.0 0.0 0.00 0.00 0.00 100 1011.3
20260509110619 81 192 0.0 0.0 0.00 0.00 0.00 100 1011.3
20260509110307 81 192 0.0 0.0 0.00 0.00 0.00 100 1011.3
20260509105807 80 192 0.0 0.0 0.00 0.00 0.00 100 1011.3
20260509105307 80 192 0.0 0.0 0.00 0.00 0.00 100 1011.2
20260509104807 80 192 0.0 0.0 0.00 0.00 0.00 100 1011.2
20260509104307 80 192 0.0 0.0 0.00 0.00 0.00 100 1011.1
20260509103807 80 192 0.0 0.0 0.00 0.00 0.00 100 1011.1
20260509103447 80 192 0.0 0.0 0.00 0.00 0.00 100 1011.1
20260509103307 80 192 0.0 0.0 0.00 0.00 0.00 100 1011.1
20260509102807 80 192 0.0 0.0 0.00 0.00 0.00 100 1010.9
20260509102307 80 192 0.0 0.0 0.00 0.00 0.00 100 1010.8
20260509102008 80 192 0.0 0.0 0.00 0.00 0.00 100 1010.6
20260509101807 80 192 0.0 0.0 0.00 0.00 0.00 100 1010.6
20260509101307 80 192 0.0 0.0 0.00 0.00 0.00 100 1010.6
20260509100807 81 192 0.0 1.0 0.00 0.00 0.00 100 1010.5
20260509100307 81 196 0.0 1.0 0.00 0.00 0.00 100 1010.5
20260509095807 80 19 0.0 0.0 0.00 0.00 0.00 100 1010.6
20260509095307 80 19 0.0 0.0 0.00 0.00 0.00 100 1010.6
20260509094807 81 19 0.0 0.0 0.00 0.00 0.00 100 1010.6
20260509094307 81 19 0.0 0.0 0.00 0.00 0.00 100 1010.7
20260509093950 80 19 0.0 0.0 0.00 0.00 0.00 100 1010.9
20260509093807 80 19 0.0 0.0 0.00 0.00 0.00 100 1010.9